Weather History for Glendive, MT

Change the Weather History Date:

Friday, September 7, 2012

  Actual Average Record
Temperature  
Mean Temperature 56 °F -  
Max Temperature 75 °F 75 °F 95 °F (2003)
Min Temperature 37 °F 49 °F 35 °F (2008)
Degree Days  
Heating Degree Days 9    
Growing Degree Days 6 (Base 50)    
Moisture  
Dew Point 36 °F    
Average Humidity 52    
Maximum Humidity 87    
Minimum Humidity 24    
Precipitation  
Precipitation 0.00 in - - ()
Sea Level Pressure  
Sea Level Pressure 30.23 in    
Wind  
Wind Speed 6 mph (WNW)    
Max Wind Speed 14 mph    
Max Gust Speed 21 mph    
Visibility 10 miles    
Events      
Averages and records for this station are not official NWS values.
T = Trace of Precipitation, MM = Missing Value Source: NWS Daily Summary

Daily Weather History Graph

Daily Weather History Graph

Search for Another Location

Airport:

Trip Planner

Search our weather history database for the weather conditions in past years. The results will help you decide how hot, cold, wet, or windy it might be!

Date:

Astronomy

Sep. 07, 2012 Rise Set
Actual Time 6:27 AM MDT 7:26 PM MDT
Civil Twilight 5:55 AM MDT 7:57 PM MDT
Nautical Twilight 5:18 AM MDT 8:34 PM MDT
Astronomical Twilight 4:39 AM MDT 9:13 PM MDT
Moon 10:54 PM MDT (9/7) 1:50 PM MDT (9/7)
Length of Visible Light 14h 01m
Length of Day
12h 59m
Waning Gibbous, 58% of the Moon is Illuminated
Sep 7
Waning Gibbous
Sep 8
Last Quarter
Sep 15
New
Sep 22
First Quarter
Sep 29
Full

Hourly Weather History & Observations

Time (MDT) Temp. Windchill Dew Point Humidity Pressure Visibility Wind Dir Wind Speed Gust Speed Precip Events Conditions
12:15 AM 46.4 °F - 35.6 °F 66% 30.20 in 10.0 mi Calm Calm - N/A   Clear
12:35 AM 46.4 °F 44.3 °F 37.4 °F 71% 30.20 in 10.0 mi NNW 4.6 mph - N/A   Clear
12:55 AM 44.6 °F 42.2 °F 33.8 °F 66% 30.20 in 10.0 mi WNW 4.6 mph - N/A   Clear
1:15 AM 44.6 °F 40.2 °F 35.6 °F 71% 30.20 in 10.0 mi WNW 8.1 mph - N/A   Clear
1:35 AM 42.8 °F 38.6 °F 35.6 °F 76% 30.20 in 10.0 mi NW 6.9 mph - N/A   Clear
1:55 AM 42.8 °F 40.1 °F 33.8 °F 70% 30.20 in 10.0 mi NW 4.6 mph - N/A   Clear
2:15 AM 39.2 °F 35.9 °F 33.8 °F 81% 30.20 in 10.0 mi WNW 4.6 mph - N/A   Clear
2:35 AM 39.2 °F 35.0 °F 33.8 °F 81% 30.21 in 10.0 mi WNW 5.8 mph - N/A   Clear
2:55 AM 39.2 °F 34.2 °F 33.8 °F 81% 30.21 in 10.0 mi WNW 6.9 mph - N/A   Clear
3:15 AM 41.0 °F 37.1 °F 35.6 °F 81% 30.21 in 10.0 mi WNW 5.8 mph - N/A   Clear
3:35 AM 39.2 °F 35.9 °F 33.8 °F 81% 30.21 in 10.0 mi NW 4.6 mph - N/A   Clear
3:55 AM 37.4 °F 32.8 °F 33.8 °F 87% 30.21 in 10.0 mi NW 5.8 mph - N/A   Clear
4:15 AM 39.2 °F 34.2 °F 35.6 °F 87% 30.22 in 10.0 mi NW 6.9 mph - N/A   Clear
4:35 AM 39.2 °F 34.2 °F 33.8 °F 81% 30.22 in 10.0 mi NW 6.9 mph - N/A   Clear
4:55 AM 39.2 °F 35.0 °F 33.8 °F 81% 30.23 in 10.0 mi NW 5.8 mph - N/A   Clear
5:15 AM 39.2 °F 33.6 °F 33.8 °F 81% 30.23 in 10.0 mi NNW 8.1 mph - N/A   Clear
5:35 AM 39.2 °F 33.6 °F 33.8 °F 81% 30.23 in 10.0 mi NW 8.1 mph - N/A   Clear
5:55 AM 39.2 °F 33.6 °F 33.8 °F 81% 30.24 in 10.0 mi NNW 8.1 mph - N/A   Clear
6:35 AM 41.0 °F 37.1 °F 35.6 °F 81% 30.25 in 10.0 mi NNW 5.8 mph - N/A   Clear
6:55 AM 41.0 °F - 35.6 °F 81% 30.25 in 10.0 mi Calm Calm - N/A   Clear
7:15 AM 42.8 °F - 35.6 °F 76% 30.26 in 10.0 mi Calm Calm - N/A   Clear
7:35 AM 44.6 °F - 37.4 °F 76% 30.27 in 10.0 mi Calm Calm - N/A   Clear
7:55 AM 46.4 °F - 37.4 °F 71% 30.27 in 10.0 mi Calm Calm - N/A   Clear
8:15 AM 48.2 °F - 37.4 °F 66% 30.27 in 10.0 mi NNE 3.5 mph - N/A   Clear
8:35 AM 51.8 °F - 39.2 °F 62% 30.27 in 10.0 mi Calm Calm - N/A   Clear
8:55 AM 53.6 °F - 39.2 °F 58% 30.27 in 10.0 mi South 3.5 mph - N/A   Clear
9:15 AM 55.4 °F - 39.2 °F 54% 30.27 in 10.0 mi South 4.6 mph - N/A   Clear
9:35 AM 57.2 °F - 39.2 °F 51% 30.27 in 10.0 mi South 3.5 mph - N/A   Clear
9:55 AM 59.0 °F - 39.2 °F 48% 30.27 in 10.0 mi South 3.5 mph - N/A   Clear
10:15 AM 60.8 °F - 39.2 °F 45% 30.28 in 10.0 mi South 3.5 mph - N/A   Clear
10:35 AM 62.6 °F - 39.2 °F 42% 30.28 in 10.0 mi NW 4.6 mph - N/A   Clear
10:55 AM 62.6 °F - 39.2 °F 42% 30.28 in 10.0 mi North 6.9 mph - N/A   Clear
11:15 AM 64.4 °F - 39.2 °F 40% 30.27 in 10.0 mi NNW 10.4 mph - N/A   Clear
11:55 AM 66.2 °F - 39.2 °F 37% 30.26 in 10.0 mi NW 9.2 mph - N/A   Clear
12:15 PM 69.8 °F - 39.2 °F 33% 30.26 in 10.0 mi West 8.1 mph 17.3 mph N/A   Clear
12:35 PM 68.0 °F - 39.2 °F 35% 30.26 in 10.0 mi North 8.1 mph - N/A   Clear
12:55 PM 69.8 °F - 39.2 °F 33% 30.25 in 10.0 mi West 11.5 mph 19.6 mph N/A   Clear
1:15 PM 71.6 °F - 37.4 °F 29% 30.25 in 10.0 mi NNW 8.1 mph 16.1 mph N/A   Clear
1:35 PM 71.6 °F - 37.4 °F 29% 30.24 in 10.0 mi West 6.9 mph 20.7 mph N/A   Clear
1:55 PM 71.6 °F - 35.6 °F 27% 30.24 in 10.0 mi West 6.9 mph 16.1 mph N/A   Clear
2:15 PM 73.4 °F - 35.6 °F 25% 30.24 in 10.0 mi West 13.8 mph 17.3 mph N/A   Clear
2:35 PM 73.4 °F - 37.4 °F 27% 30.23 in 10.0 mi NW 10.4 mph 19.6 mph N/A   Clear
2:55 PM 73.4 °F - 35.6 °F 25% 30.22 in 10.0 mi WNW 11.5 mph 18.4 mph N/A   Clear
3:15 PM 73.4 °F - 37.4 °F 27% 30.22 in 10.0 mi West 10.4 mph 17.3 mph N/A   Clear
3:35 PM 73.4 °F - 35.6 °F 25% 30.21 in 10.0 mi West 10.4 mph - N/A   Clear
3:55 PM 73.4 °F - 37.4 °F 27% 30.21 in 10.0 mi WSW 9.2 mph - N/A   Clear
4:15 PM 73.4 °F - 35.6 °F 25% 30.20 in 10.0 mi NW 10.4 mph 16.1 mph N/A   Clear
4:35 PM 73.4 °F - 35.6 °F 25% 30.20 in 10.0 mi NW 8.1 mph - N/A   Clear
4:55 PM 73.4 °F - 37.4 °F 27% 30.20 in 10.0 mi NW 13.8 mph 19.6 mph N/A   Clear
5:15 PM 75.2 °F - 35.6 °F 24% 30.20 in 10.0 mi NW 12.7 mph - N/A   Clear
5:35 PM 73.4 °F - 37.4 °F 27% 30.20 in 10.0 mi NW 11.5 mph - N/A   Clear
6:15 PM 73.4 °F - 37.4 °F 27% 30.19 in 10.0 mi NW 10.4 mph - N/A   Clear
6:35 PM 73.4 °F - 37.4 °F 27% 30.19 in 10.0 mi WNW 11.5 mph 16.1 mph N/A   Clear
6:55 PM 71.6 °F - 37.4 °F 29% 30.19 in 10.0 mi NW 11.5 mph - N/A   Clear
7:15 PM 68.0 °F - 35.6 °F 30% 30.19 in 10.0 mi NW 6.9 mph - N/A   Clear
7:35 PM 66.2 °F - 35.6 °F 32% 30.19 in 7.0 mi NW 5.8 mph - N/A   Clear
7:55 PM 62.6 °F - 35.6 °F 37% 30.19 in 10.0 mi WNW 6.9 mph - N/A   Clear
8:35 PM 62.6 °F - 35.6 °F 37% 30.20 in 10.0 mi NNW 5.8 mph - N/A   Clear
8:55 PM 57.2 °F - 33.8 °F 41% 30.20 in 10.0 mi NNW 8.1 mph - N/A   Clear
9:15 PM 57.2 °F - 35.6 °F 44% 30.20 in 10.0 mi NW 6.9 mph - N/A   Clear
9:35 PM 51.8 °F - 33.8 °F 50% 30.20 in 10.0 mi WNW 4.6 mph - N/A   Clear
10:35 PM 51.8 °F - 33.8 °F 50% 30.20 in 10.0 mi West 8.1 mph - N/A   Clear
10:55 PM 51.8 °F - 35.6 °F 54% 30.20 in 10.0 mi WNW 8.1 mph - N/A   Clear
11:15 PM 53.6 °F - 35.6 °F 51% 30.20 in 10.0 mi WNW 6.9 mph - N/A   Clear
11:35 PM 51.8 °F - 35.6 °F 54% 30.20 in 10.0 mi WNW 6.9 mph - N/A   Clear
11:55 PM 51.8 °F - 35.6 °F 54% 30.19 in 10.0 mi West 8.1 mph - N/A   Clear